India Forums Logo

Bade Acche Laggte Hai

India Forums > Forum Index > Bade Acche Laggte Hai
2 strangers getting married and falling in love
...
<< | 145 | 146 | 147 | 148 | 149 | 150 | 151 | 152 | 153 | 154 | 155 | 156 | 157 | 158 | 159 | 160 | 161 | 162 | 163 | ... >>
TIDTopic SubjectStart DateLast Entry
3423026IBN 7 /news 24/SBS balh seg2/5/2013 1:32:47 AM2/12/2013 12:28:46 PM
3423417Sakshi Tanwar at A Recent Party Event2/5/2013 5:06:37 AM2/13/2013 4:08:23 AM
3423603is it necessary for ayesha to die2/5/2013 7:11:31 AM2/5/2013 9:51:35 AM
3423753bade acche lagte hai ye confusion2/5/2013 8:29:25 AM2/6/2013 7:16:24 AM
3423774Priya and her decisions2/5/2013 8:38:59 AM2/6/2013 3:55:30 AM
3423991Will Pihu stay with daddy Ram Kapoor?2/5/2013 10:33:01 AM2/5/2013 10:33:01 AM
3423993PRECAP feb 5/ video2/5/2013 10:34:08 AM2/12/2013 9:19:25 PM
3424023tomorrow prediction2/5/2013 10:49:22 AM2/6/2013 2:16:00 AM
3424030ayesha and mamaji lol2/5/2013 10:51:44 AM2/6/2013 5:54:46 AM
3424038pihu life is in danger2/5/2013 10:54:37 AM2/5/2013 10:59:35 AM
3424046pyar aur beti vs ayesha2/5/2013 10:56:27 AM2/6/2013 6:32:25 AM
3424152TOI: No tv serials for Samir2/5/2013 11:52:30 AM2/6/2013 7:06:23 AM
3424161i wish2/5/2013 11:57:35 AM2/5/2013 2:49:57 PM
3424185Written update dt. 05.02.132/5/2013 12:16:09 PM2/6/2013 9:21:07 AM
3424242Sakshi's Caricature :D2/5/2013 12:59:26 PM2/10/2013 8:46:36 AM
3424368TRP article this weeks trps on thursday2/5/2013 3:36:56 PM2/12/2013 9:26:41 PM
3424468new promo feb 6th video added2/5/2013 6:53:31 PM2/13/2013 12:59:44 AM
3424481HT[M]- Makers knew i wasnt available-Ram2/5/2013 7:26:48 PM2/12/2013 11:03:00 PM
3424664Couldn't Ayesha see the size of the sleeping man??2/5/2013 11:03:11 PM2/6/2013 2:18:59 AM
3424842Front Page 2012(Report Sum)BALH, Ram, Priya on Top2/6/2013 1:15:23 AM2/12/2013 9:40:09 PM
3425146Ayesha Kapoor killed in an accident2/6/2013 5:27:24 AM2/13/2013 7:21:16 PM
3425291Riddhi Vikram Shergill2/6/2013 7:25:57 AM2/6/2013 9:16:40 AM
3425402Ram Pihu shoot at theme park2/6/2013 8:30:49 AM2/12/2013 10:58:38 PM
3425515did any one observe2/6/2013 9:21:45 AM2/6/2013 11:18:15 AM
3425612Priya dealing with ego or abhiman?2/6/2013 10:00:50 AM2/7/2013 4:49:49 PM
3425670Priya - I cant believe it!!!2/6/2013 10:26:13 AM2/13/2013 1:16:41 AM
3425681~Precap~ video added2/6/2013 10:33:23 AM2/13/2013 1:21:00 AM
3425695Yapieee.Priya Stays...2/6/2013 10:38:44 AM2/13/2013 1:14:34 AM
3425717atlast we got what we want2/6/2013 10:51:01 AM2/7/2013 2:52:19 AM
3425753Dadi..The Original Rockstar!2/6/2013 11:08:08 AM2/13/2013 12:55:26 AM
3425758hey final reunion...2/6/2013 11:09:04 AM2/6/2013 11:09:04 AM
3425772BALH WU 6th feb 2013- Priya makes her decision2/6/2013 11:19:25 AM2/7/2013 8:55:34 AM
3425776awww priya's masterstroke2/6/2013 11:21:46 AM2/6/2013 5:11:38 PM
3425819Changed Reactions as Episode Progressed!!2/6/2013 11:43:43 AM2/6/2013 12:13:25 PM
3425828promo link2/6/2013 11:46:08 AM2/6/2013 12:55:07 PM
3425869Ram Priya Precap - Raya getting a bit KINKY!!2/6/2013 11:57:57 AM2/13/2013 2:42:41 AM
3425910let us predict again2/6/2013 12:22:34 PM2/6/2013 12:22:34 PM
3425933Wrong post2/6/2013 12:47:38 PM2/6/2013 12:47:38 PM
3426112Temporary reunion2/6/2013 5:29:31 PM2/7/2013 1:37:31 AM
3426131Is Priya going to be pregnant again?2/6/2013 6:12:04 PM2/7/2013 11:25:05 PM
3426176TOI: Chahat ties the knot with Farhan2/6/2013 7:41:30 PM2/13/2013 2:29:55 AM
3426349priya is she leaving for dubai2/6/2013 11:16:47 PM2/7/2013 3:52:54 AM
3426362Gec - sony falls from 186 to 159:( scared2/6/2013 11:27:57 PM2/7/2013 1:36:52 AM
3426451BALH TRP week 5 - fall badly :(:(2/7/2013 12:41:48 AM2/7/2013 10:10:46 PM
3426595BALH: Ram & Priya Starts Living Together2/7/2013 2:44:22 AM2/13/2013 7:20:29 PM
3426644TRP ARTICLE RIVAL SITE/ new system2/7/2013 3:12:24 AM2/13/2013 2:16:32 AM
3426652little golu2/7/2013 3:18:40 AM2/7/2013 2:01:08 PM
34266736th feb 2013 written update ..2/7/2013 3:36:40 AM2/7/2013 7:57:51 PM
3426781BALH promos -sony messing up big time2/7/2013 4:40:42 AM3/13/2013 7:15:00 AM
3426816plz need ur help guys2/7/2013 5:22:06 AM2/7/2013 6:59:24 AM
3426946"priya deewar tak kaise pahonchi"2/7/2013 7:12:43 AM2/13/2013 11:05:56 AM
3427212Eastern Eye Interview of Asha (apeksha) on RaShi.2/7/2013 9:28:25 AM2/13/2013 2:26:22 AM
3427355Priya is guilty!!!Mrs.Kapoor Updtd..2/7/2013 10:26:59 AM2/8/2013 2:33:21 AM
3427369~*Precap*~ video2/7/2013 10:34:16 AM2/13/2013 2:31:21 AM
3427609dun dun dun..who sees SID?2/7/2013 12:35:11 PM2/8/2013 2:18:12 AM
3427639Deja Vu!2/7/2013 1:08:29 PM2/7/2013 1:46:45 PM
3427647Brief Update 2/7/132/7/2013 1:16:46 PM2/8/2013 11:23:13 AM
3427840WU 7/2/13: Ayesha meets with an accident !!2/7/2013 8:55:36 PM2/11/2013 7:33:09 AM
3427926how to remove mahantaa from priya2/7/2013 10:46:51 PM2/8/2013 10:23:25 AM
3427983Much ado about nothing...2/7/2013 11:32:08 PM2/13/2013 11:10:00 AM
3427989CVs of BALH are the best2/7/2013 11:38:11 PM2/10/2013 8:39:05 AM
3428075Its no more abt Priya's Mahanta now..!2/8/2013 12:51:48 AM2/13/2013 1:55:35 AM
3428121Raya in top ten romantic jodi/link2/8/2013 1:34:24 AM2/13/2013 2:39:38 AM
3428141Article about Sakshi,RAm n Amrita's bonding :)2/8/2013 1:50:11 AM2/13/2013 2:34:16 AM
3428389Share Hum Tum Kitne door hai kitne paas2/8/2013 4:27:52 AM2/8/2013 4:27:52 AM
3428391Amrita Aka Pihuu's Interview..2/8/2013 4:29:41 AM2/8/2013 11:20:56 AM
3428636RaYa tel maalish pic rival site2/8/2013 7:28:10 AM2/11/2013 10:49:00 PM
3428678Promo for Feb 11 same Priya guilty /Ayesha's accid2/8/2013 8:02:24 AM2/11/2013 7:57:50 PM
3428723before ayesha's death2/8/2013 8:31:21 AM2/8/2013 5:24:37 PM
3428857RaYa vmx... new, p.8 RaYa-Unbreacable2/8/2013 9:46:36 AM4/28/2013 2:02:31 PM
3429615A chance to relive KGGK!2/9/2013 2:14:46 AM2/22/2013 5:19:03 PM
3429625RIVAL SITE ARTICLE on rajat/samir2/9/2013 2:26:25 AM2/10/2013 3:14:49 AM
3429688Sakshi at BT annual party pics2/9/2013 3:39:30 AM2/13/2013 2:35:21 PM
3429817TB article new face as Ayesha2/9/2013 6:05:37 AM2/13/2013 3:28:30 PM
3429864Ormax-Top 5 characters-Jan13-RaYa2/9/2013 7:09:01 AM2/13/2013 1:48:08 PM
<< | 145 | 146 | 147 | 148 | 149 | 150 | 151 | 152 | 153 | 154 | 155 | 156 | 157 | 158 | 159 | 160 | 161 | 162 | 163 | ... >>